Fort Campbell, TN

2:49 AM CST on February 08, 2016 (GMT -0600)
Outlaw

Weather History for KCKV - May, 2014

Change the Weather History Date:

Sunday, May 4, 2014

  Actual Average Record
Temperature  
Mean Temperature 68 °F -  
Max Temperature 84 °F - 91 °F (1952)
Min Temperature 52 °F - 33 °F (1976)
Degree Days  
Heating Degree Days 0    
Month to date heating degree days  
Since 1 July heating degree days  
Cooling Degree Days 3    
Month to date cooling degree days  
Growing Degree Days 18 (Base 50)    
Moisture  
Dew Point 48 °F    
Average Humidity 48    
Maximum Humidity 80    
Minimum Humidity 27    
Precipitation  
Precipitation 0.00 in - 1.44 in (1979)
Month to date precipitation  
Sea Level Pressure  
Sea Level Pressure 29.96 in    
Wind  
Wind Speed 6 mph (SW)    
Max Wind Speed 16 mph    
Max Gust Speed 25 mph    
Visibility 10 miles    
Events      
T = Trace of Precipitation, MM = Missing Value Source: NWS Daily Summary

Daily Weather History Graph

Daily Weather History Graph

Search for Another Location

Airport or City:

Trip Planner

Search our weather history database for the weather conditions in past years. The results will help you decide how hot, cold, wet, or windy it might be!

Date:

Astronomy

May. 04, 2014 Rise Set
Actual Time 5:52 AM CDT 7:40 PM CDT
Civil Twilight 5:24 AM CDT 8:08 PM CDT
Nautical Twilight 4:51 AM CDT 8:42 PM CDT
Astronomical Twilight 4:15 AM CDT 9:18 PM CDT
Moon 10:17 AM CDT (5/4) No Moon Set
Length of Visible Light 14h 43m
Length of Day
13h 47m
Waxing Crescent, 28% of the Moon is Illuminated
May 4
Waxing Crescent
May 6
First Quarter
May 14
Full
May 21
Last Quarter
May 28
New

Hourly Weather History & Observations

Time (CDT) Temp. Dew Point Humidity Pressure Visibility Wind Dir Wind Speed Gust Speed Precip Events Conditions
12:52 AM 53.1 °F 46.0 °F 77% 29.98 in 10.0 mi Calm Calm - N/A   Clear
1:52 AM 52.0 °F 46.0 °F 80% 29.97 in 10.0 mi Calm Calm - N/A   Clear
2:52 AM 52.0 °F 46.0 °F 80% 29.97 in 10.0 mi SSE 3.5 mph - N/A   Clear
3:52 AM 52.0 °F 46.0 °F 80% 29.97 in 10.0 mi SSE 3.5 mph - N/A   Clear
4:52 AM 57.0 °F 45.0 °F 64% 29.98 in 10.0 mi SW 4.6 mph - N/A   Clear
5:52 AM 57.9 °F 45.0 °F 62% 29.99 in 10.0 mi SW 5.8 mph - N/A   Clear
6:52 AM 59.0 °F 46.0 °F 62% 30.01 in 10.0 mi SW 5.8 mph - N/A   Clear
7:52 AM 64.9 °F 46.9 °F 52% 30.01 in 10.0 mi SW 10.4 mph - N/A   Clear
8:52 AM 71.1 °F 48.9 °F 45% 30.02 in 10.0 mi WSW 9.2 mph - N/A   Clear
9:52 AM 75.0 °F 50.0 °F 41% 30.02 in 10.0 mi West 13.8 mph 20.7 mph N/A   Clear
10:52 AM 78.1 °F 48.0 °F 35% 30.01 in 10.0 mi West 13.8 mph - N/A   Clear
11:52 AM 81.0 °F 51.1 °F 35% 30.01 in 10.0 mi West 10.4 mph 19.6 mph N/A   Clear
12:52 PM 82.0 °F 51.1 °F 34% 29.98 in 10.0 mi WSW 12.7 mph - N/A   Clear
1:52 PM 84.0 °F 51.1 °F 32% 29.96 in 10.0 mi West 10.4 mph 19.6 mph N/A   Clear
2:52 PM 84.9 °F 48.0 °F 28% 29.94 in 10.0 mi WSW 13.8 mph - N/A   Clear
3:52 PM 84.9 °F 48.0 °F 28% 29.92 in 10.0 mi West 11.5 mph - N/A   Clear
4:52 PM 84.9 °F 46.9 °F 27% 29.90 in 10.0 mi SW 16.1 mph 25.3 mph N/A   Clear
5:52 PM 84.0 °F 46.9 °F 27% 29.88 in 10.0 mi SW 12.7 mph 23.0 mph N/A   Clear
7:52 PM 78.1 °F 48.0 °F 35% 29.88 in 10.0 mi SSW 8.1 mph - N/A   Clear
8:52 PM 73.9 °F 48.0 °F 40% 29.88 in 10.0 mi SSW 5.8 mph - N/A   Clear
9:52 PM 73.0 °F 48.0 °F 41% 29.90 in 10.0 mi SSW 5.8 mph - N/A   Clear
10:52 PM 70.0 °F 48.9 °F 47% 29.91 in 10.0 mi SSW 5.8 mph - N/A   Clear
11:52 PM 66.9 °F 48.9 °F 52% 29.90 in 10.0 mi South 5.8 mph - N/A   Clear